Tracking 23752 objects as of 24-Oct-2021
HD Live streaming from Space Station
objects crossing your sky now

BREEZE-M DEB

Track BREEZE-M DEB now!


NORAD ID: 38586
Int'l Code: 2008-011AH
Perigee: 1,459.1 km
Apogee: 27,161.1 km
Inclination: 49.5 °
Period: 493.3 minutes
Semi major axis: 20681 km
RCS: 0.0885 m2 (small)
Launch date: March 14, 2008
Source: Commonwealth of Independent States (former USSR) (CIS)
Launch site: TYURATAM MISSILE AND SPACE COMPLEX (TTMTR)

Note: This is SATELLITE DEBRIS
aabbcc
Your satellite tracking list
Your tracking list is empty




NASA's NSSDC Master Catalog

Two Line Element Set (TLE):
1 38586U 08011AH  21296.37622787 -.00000044  00000-0  00000-0 0  9991
2 38586  49.5185  93.2481 6213893 212.2221  87.0330  2.91906017112296
Source of the keplerian elements: AFSPC